Location: Unspecified
(0.0000°N, 0.0000°E)
Time: 13:03:01
(UTC+00:00)

Explorer 11/Cluster Stage 4 - All Passes

Search period start: 29 September 2023 00:00
Search period end: 09 October 2023 00:00
Orbit: 466 x 1233 km, 28.8° (Epoch: 29 September)

Date Brightness Start Highest point End Pass type
(mag) Time Alt. Az. Time Alt. Az. Time Alt. Az.
29 Sep - 00:09:28 10° N 00:12:50 13° NNE 00:16:05 10° NE night (unlit)
29 Sep - 01:56:00 10° NW 02:02:44 35° NNE 02:08:30 10° E visible
29 Sep - 03:44:49 10° WNW 03:51:36 67° SSW 03:57:02 10° SE visible
29 Sep - 05:36:59 10° WSW 05:39:49 14° SSW 05:42:22 10° S daylight
29 Sep - 14:42:07 10° SW 14:46:29 58° SSE 14:51:55 10° ENE daylight
29 Sep - 16:30:21 10° W 16:34:58 31° NNW 16:40:32 10° NE daylight
29 Sep - 18:23:07 10° NNW 18:24:37 11° NNW 18:26:09 10° N visible
29 Sep - 23:53:39 10° NNW 23:57:51 15° NNE 00:01:54 10° NE night (unlit)
30 Sep - 01:40:31 10° NW 01:47:41 40° NNE 01:53:50 10° E night (unlit)
30 Sep - 03:29:35 10° WNW 03:36:33 59° SSW 03:42:10 10° SE visible
30 Sep - 05:22:18 10° WSW 05:24:51 13° SSW 05:27:13 10° S visible
30 Sep - 14:27:19 10° SW 14:31:33 69° SSE 14:36:47 10° ENE daylight
30 Sep - 16:15:53 10° W 16:20:03 25° NNW 16:25:01 10° NNE daylight
30 Sep - 23:37:58 10° NNW 23:42:49 17° NNE 23:47:31 10° ENE night (unlit)
01 Oct - 01:25:04 10° NW 01:32:34 47° NNE 01:39:05 10° E night (unlit)
01 Oct - 03:14:22 10° WNW 03:21:26 52° SSW 03:27:15 10° SE visible
01 Oct - 05:07:40 10° SW 05:09:53 12° SSW 05:11:59 10° S visible
01 Oct - 12:27:28 10° S 12:28:48 11° SSE 12:30:09 10° SE daylight
01 Oct - 14:12:33 10° WSW 14:16:38 83° SSE 14:21:38 10° ENE daylight
01 Oct - 16:01:29 10° WNW 16:05:09 21° NNW 16:09:25 10° NNE daylight
01 Oct - 23:22:23 10° NNW 23:27:46 19° NNE 23:32:59 10° ENE night (unlit)
02 Oct - 01:09:39 10° NW 01:17:25 53° NNE 01:24:14 10° ESE night (unlit)
02 Oct - 02:59:10 10° WNW 03:06:19 47° SSW 03:12:17 10° SE visible
02 Oct - 04:53:06 10° SW 04:54:55 11° SSW 04:56:39 10° SSW visible
02 Oct - 12:12:04 10° S 12:13:55 13° SSE 12:15:50 10° ESE daylight
02 Oct - 13:57:47 10° WSW 14:01:44 81° NNW 14:06:29 10° ENE daylight
02 Oct - 15:47:12 10° WNW 15:50:16 17° NNW 15:53:45 10° NNE daylight
02 Oct - 23:06:51 10° NNW 23:12:39 21° NNE 23:18:21 10° ENE night (unlit)
03 Oct - 00:54:15 10° NW 01:02:13 60° NNE 01:09:20 10° ESE night (unlit)
03 Oct - 02:43:58 10° W 02:51:08 42° SSW 02:57:15 10° SE visible
03 Oct - 04:38:42 10° SW 04:39:55 11° SSW 04:41:07 10° SSW visible
03 Oct - 11:56:47 10° S 11:59:01 15° SSE 12:01:22 10° ESE daylight
03 Oct - 13:43:03 10° WSW 13:46:51 65° NNW 13:51:19 10° NE daylight
03 Oct - 15:33:07 10° NW 15:35:25 13° NNW 15:37:55 10° N daylight
03 Oct - 22:51:23 10° NNW 22:57:30 24° NNE 23:03:36 10° ENE night (unlit)
04 Oct - 00:38:54 10° NW 00:46:59 68° NNE 00:54:22 10° ESE night (unlit)
04 Oct - 02:28:49 10° W 02:35:57 38° SSW 02:42:10 10° SE visible
04 Oct - 11:41:34 10° SSW 11:44:08 18° SSE 11:46:48 10° ESE daylight
04 Oct - 13:28:19 10° WSW 13:31:58 50° NNW 13:36:08 10° NE daylight
04 Oct - 15:19:38 10° NNW 15:20:33 10° NNW 15:21:30 10° N daylight
04 Oct - 22:35:57 10° NNW 22:42:19 26° NNE 22:48:46 10° E night (unlit)
05 Oct - 00:23:34 10° NW 00:31:43 76° NNE 00:39:20 10° ESE night (unlit)
05 Oct - 02:13:41 10° W 02:20:44 35° SSW 02:27:02 10° SSE visible
05 Oct - 11:26:22 10° SSW 11:29:16 22° SSE 11:32:10 10° E daylight
05 Oct - 13:13:37 10° W 13:17:05 39° NNW 13:20:56 10° NE daylight
05 Oct - 22:20:34 10° NNW 22:27:06 29° NNE 22:33:51 10° E night (unlit)
06 Oct - 00:08:17 10° WNW 00:16:26 84° NNE 00:24:13 10° ESE night (unlit)
06 Oct - 01:58:35 10° W 02:05:31 32° SSW 02:11:50 10° SSE visible
06 Oct - 11:11:12 10° SSW 11:14:22 27° SSE 11:17:29 10° E daylight
06 Oct - 12:58:57 10° W 13:02:12 31° NNW 13:05:42 10° NE daylight
06 Oct - 22:05:14 10° NNW 22:11:52 32° NNE 22:18:52 10° E night (unlit)
06 Oct - 23:53:01 10° WNW 00:01:06 88° SSW 00:09:03 10° ESE night (unlit)
07 Oct - 01:43:31 10° W 01:50:17 29° SSW 01:56:34 10° SSE visible
07 Oct - 10:56:02 10° SW 10:59:28 34° SSE 11:02:46 10° E daylight
07 Oct - 12:44:18 10° W 12:47:18 25° NNW 12:50:28 10° NNE daylight
07 Oct - 20:06:08 10° NNE 20:07:09 10° NNE 20:08:11 10° NNE visible
07 Oct - 21:49:55 10° NNW 21:56:36 35° NNE 22:03:48 10° E night (unlit)
07 Oct - 23:37:48 10° WNW 23:45:46 79° SSW 23:53:49 10° SE night (unlit)
08 Oct - 01:28:30 10° W 01:35:03 27° SSW 01:41:16 10° SSE night (unlit)
08 Oct - 10:40:52 10° SW 10:44:34 43° SSE 10:48:01 10° ENE daylight
08 Oct - 12:29:41 10° WNW 12:32:24 20° NNW 12:35:11 10° NNE daylight
08 Oct - 19:50:17 10° N 19:52:04 11° NNE 19:53:55 10° NE visible
08 Oct - 21:34:40 10° NW 21:41:20 38° NNE 21:48:41 10° E night (unlit)
08 Oct - 23:22:37 10° WNW 23:30:26 72° SSW 23:38:31 10° SE night (unlit)
